Fort Rucker / Ozark, AL

12:02 PM CDT on June 29, 2017 (GMT -0500)
Fort Rucker / Ozark

Weather History for KHEY - September, 2013

Change the Weather History Date:

Wednesday, September 11, 2013

  Actual Average (KOZR) Record (KOZR)
Temperature  
Mean Temperature 82 °F -  
Max Temperature 91 °F 84 °F 98 °F (2010)
Min Temperature 72 °F 65 °F 59 °F (2011)
Cooling Degree Days 16    
Growing Degree Days 32 (Base 50)    
Moisture  
Dew Point 69 °F    
Average Humidity 69    
Maximum Humidity 91    
Minimum Humidity 45    
Precipitation  
Precipitation 0.00 in - - ()
Sea Level Pressure  
Sea Level Pressure 29.79 in    
Wind  
Wind Speed 6 mph (ENE)    
Max Wind Speed 13 mph    
Max Gust Speed 16 mph    
Visibility 10 miles    
Events      
Averages and records for this station are not official NWS values.
T = Trace of Precipitation, MM = Missing Value Source: NWS Daily Summary

Daily Weather History Graph

Daily Weather History Graph

Search for Another Location

Airport or City:

Trip Planner

Search our weather history database for the weather conditions in past years. The results will help you decide how hot, cold, wet, or windy it might be!

Date:

Astronomy

Sep. 11, 2013 Rise Set
Actual Time 6:24 AM CDT 6:53 PM CDT
Civil Twilight 6:00 AM CDT 7:17 PM CDT
Nautical Twilight 5:31 AM CDT 7:46 PM CDT
Astronomical Twilight 5:02 AM CDT 8:15 PM CDT
Moon 12:27 PM CDT (9/11) 11:13 PM CDT (9/11)
Length of Visible Light 13h 17m
Length of Day
12h 28m
Waxing Crescent, 39% of the Moon is Illuminated
Sep 11
Waxing Crescent
Sep 12
First Quarter
Sep 19
Full
Sep 26
Last Quarter
Oct 4
New

Hourly Weather History & Observations

Time (CDT) Temp. Heat Index Dew Point Humidity Pressure Visibility Wind Dir Wind Speed Gust Speed Precip Events Conditions
12:53 AM 78.1 °F - 70.0 °F 76% 29.80 in 10.0 mi East 5.8 mph - 0.00 in   Overcast
1:53 AM 75.9 °F - 69.1 °F 79% 29.79 in 10.0 mi East 5.8 mph - N/A   Partly Cloudy
2:53 AM 75.0 °F - 69.1 °F 82% 29.78 in 10.0 mi East 4.6 mph - N/A   Clear
3:53 AM 73.0 °F - 69.1 °F 87% 29.79 in 9.0 mi North 3.5 mph - N/A   Clear
4:53 AM 72.0 °F - 69.1 °F 91% 29.80 in 9.0 mi North 4.6 mph - N/A   Clear
5:53 AM 73.9 °F - 69.1 °F 85% 29.82 in 10.0 mi ENE 4.6 mph - N/A   Clear
6:53 AM 73.9 °F - 69.1 °F 85% 29.82 in 10.0 mi NNE 5.8 mph - N/A   Clear
7:53 AM 75.0 °F - 69.1 °F 82% 29.84 in 10.0 mi ENE 6.9 mph - N/A   Clear
8:53 AM 79.0 °F - 71.1 °F 77% 29.84 in 10.0 mi East 8.1 mph - N/A   Clear
9:53 AM 82.0 °F 86.3 °F 71.1 °F 69% 29.85 in 10.0 mi East 9.2 mph - N/A   Scattered Clouds
10:53 AM 86.0 °F 90.1 °F 69.1 °F 57% 29.84 in 10.0 mi East 10.4 mph 16.1 mph N/A   Partly Cloudy
11:53 AM 84.9 °F 88.2 °F 68.0 °F 57% 29.83 in 10.0 mi East 9.2 mph - N/A   Partly Cloudy
12:53 PM 89.1 °F 92.9 °F 68.0 °F 50% 29.81 in 10.0 mi East 12.7 mph 16.1 mph N/A   Scattered Clouds
1:53 PM 90.0 °F 93.6 °F 68.0 °F 48% 29.78 in 10.0 mi ENE 10.4 mph - N/A   Partly Cloudy
2:53 PM 91.0 °F 94.3 °F 66.9 °F 45% 29.76 in 10.0 mi ESE 8.1 mph - N/A   Partly Cloudy
3:53 PM 91.0 °F 94.3 °F 66.9 °F 45% 29.75 in 10.0 mi East 8.1 mph - N/A   Clear
4:53 PM 90.0 °F 92.8 °F 66.9 °F 46% 29.74 in 10.0 mi NE 5.8 mph - N/A   Clear
5:53 PM 88.0 °F 91.4 °F 68.0 °F 51% 29.73 in 10.0 mi East 6.9 mph - N/A   Partly Cloudy
6:53 PM 84.0 °F 87.8 °F 69.1 °F 61% 29.74 in 10.0 mi East 4.6 mph - N/A   Clear
7:53 PM 81.0 °F 84.1 °F 69.1 °F 67% 29.75 in 10.0 mi Calm Calm - N/A   Partly Cloudy
8:53 PM 81.0 °F 83.8 °F 68.0 °F 65% 29.75 in 10.0 mi East 4.6 mph - N/A   Clear
9:53 PM 75.9 °F - 70.0 °F 82% 29.76 in 10.0 mi North 3.5 mph - N/A   Clear
10:53 PM 75.9 °F - 70.0 °F 82% 29.76 in 10.0 mi Calm Calm - N/A   Clear
11:53 PM 75.0 °F - 69.1 °F 82% 29.75 in 10.0 mi North 3.5 mph - N/A   Partly Cloudy